Regional Weather Roundup
Issued by NWS Boston, MA

Home | Current Version | Previous Version | Text Only | Print | Product List | Glossary On
Versions: 1 2 3 4 5 6 7 8 9 10 11 12 13 14 15 16 17 18 19 20 21 22 23 24 25 26 27 28 29 30 31 32 33 34 35 36 37 38 39 40 41 42 43 44 45 46 47 48 49 50
947
ASUS41 KBOX 311010
RWRBOX

REGIONAL WEATHER ROUNDUP
NATIONAL WEATHER SERVICE TAUNTON MA
600 AM EDT TUE MAY 31 2016

NOTE:  "FAIR" INDICATES FEW OR NO CLOUDS BELOW 12,000 FEET WITH NO
SIGNIFICANT WEATHER AND/OR OBSTRUCTIONS TO VISIBILITY.  THE FOLLOWING
OBSERVATION LOCATIONS DO NOT REPORT PRESENT WEATHER...PROVINCETOWN...
SMITHFIELD...BLOCK ISLAND...KEENE...AND OXFORD.

MAZALL-311100-
EASTERN MASSACHUSETTS

CITY           SKY/WX    TMP DP  RH WIND       PRES   REMARKS
BOSTON         CLOUDY    70  67  90 SW10      29.89S
BEVERLY        CLOUDY    69  65  86 SW7       29.89R
LAWRENCE       CLOUDY    68  65  90 SW7       29.91R
BEDFORD        MOCLDY    68  66  93 SW3       29.89R
BLUE HILL        N/A     67  66  97 W9        29.91R
NORWOOD        CLOUDY    70  67  90 SW5       29.90R
MARSHFIELD     CLOUDY    68  68 100 VRB6G13   29.90R
PLYMOUTH       CLOUDY    66  66 100 S5        29.92S
TAUNTON        MOCLDY    69  65  86 S5        29.91S
NEW BEDFORD    CLOUDY    66  65  96 SW9       29.92S
$$

MAZALL-311100-
CAPE COD AND THE ISLANDS

CITY           SKY/WX    TMP DP  RH WIND       PRES   REMARKS
FALMOUTH       FOG       64  64 100 W10       29.94S VSB 1/2
HYANNIS        CLOUDY    66  64  93 SW14      29.92S FOG
CHATHAM        CLOUDY    61  61 100 SW8       29.95R FOG
PROVINCETOWN   MOCLDY    62  61  96 SW12      29.92S
NANTUCKET      LGT RAIN  64  63  96 W10       29.96S FOG
MARTHAS VNYRD  LGT RAIN  63  62  97 SW8       29.95R FOG
$$

MAZALL-311100-
CENTRAL AND WESTERN MASSACHUSETTS

CITY           SKY/WX    TMP DP  RH WIND       PRES   REMARKS
WORCESTER      CLOUDY    65  64  97 W7        29.94R
FITCHBURG      CLOUDY    66  63  90 CALM      29.92R
ORANGE         FOG       59  58  96 CALM      29.93R VSB 1/4
SPRINGFIELD    CLOUDY    65  64  97 S3        29.91S FOG
WESTFIELD      PTCLDY    63  62  97 CALM      29.93R
NORTH ADAMS    NOT AVBL
PITTSFIELD     CLEAR     59  56  89 CALM      29.95S
$$

RIZALL-311100-
RHODE ISLAND

CITY           SKY/WX    TMP DP  RH WIND       PRES   REMARKS
PROVIDENCE     CLOUDY    69  66  90 S6        29.93R
NEWPORT        FOG       64  63  96 S7        29.94R VSB 1/4
BLOCK ISLAND   FOG       62  62 100 SW14      29.96R VSB 1/2
SMITHFIELD     CLOUDY   N/A N/A N/A CALM      29.92R
WESTERLY       FOG       65  63  93 SW5       29.94S VSB<1/4
$$

CTZALL-311100-
CONNECTICUT

CITY           SKY/WX    TMP DP  RH WIND       PRES   REMARKS
BRADLEY INTL   CLOUDY    68  66  93 W5        29.92R
HARTFORD       CLOUDY    70  67  90 CALM      29.93R
BRIDGEPORT     CLOUDY    69  66  90 SW3       29.94R
DANBURY        CLOUDY    66  64  93 SW3       29.96R FOG
GROTON         FOG       61  61 100 SE5       29.93S VSB 1/2
NEW HAVEN      CLOUDY    67  65  93 CALM      29.93S
CHESTER        CLOUDY    68  66  94 CALM      29.94R FOG
MERIDEN        MOCLDY    68  65  90 CALM      29.93S
WILLIMANTIC    MOCLDY    70  66  87 CALM      29.93R
OXFORD         FOG       66  63  88 CALM      29.96R VSB 1/2
$$

MEZ002-015-021-024-NHZ003-005-008-011-012-014-VTZ005-008-311100-
NORTHERN NEW ENGLAND

CITY           SKY/WX    TMP DP  RH WIND       PRES   REMARKS
PORTLAND ME    CLOUDY    62  60  93 CALM      29.84R
BANGOR ME      CLOUDY    60  57  89 CALM      29.81S FOG
CONCORD NH     CLOUDY    66  61  84 SW5       29.89R
MANCHESTER NH  CLOUDY    67  62  84 SW3       29.88R
NASHUA NH      CLOUDY    67  64  90 W3        29.90R
PORTSMOUTH NH  MOCLDY    67  62  86 W8        29.86R
JAFFREY NH     PTCLDY    63  60  90 SW3       29.93R
KEENE NH         N/A     59  57  94 S3        29.93R VSB 1/4
BURLINGTON VT  FAIR      63  51  65 S3        29.89S
MT. WASHINGTON FOG       45  45 100 W39G46      N/A  VSB 0
$$

NYZ052-076-311100-
EASTERN NEW YORK

CITY           SKY/WX    TMP DP  RH WIND       PRES   REMARKS
ALBANY         PTCLDY    60  55  83 W7        29.95R
NEW YORK CITY  CLOUDY    73  67  80 W5        29.92S
$$

ANZALL-311100-
MARINE OBSERVATIONS

STATION/POSITION TIME  TEMP    WIND        PRES    VSBY  WAVE
                       AIR SEA DIR/SP/G                  HT/PER
                 (UTC) (F)     (DEG/KT/KT) (MB)    (MI)  (FT/S)
BOSTON BUOY      0950   62 57  220/  8/  8 1012.1R         1/ 5
BUZZARDS BAY     1000   62     250/ 15/ 16 1014.3R
NANTUCKET SOUND  0950   61 60  210/ 16/ 17 1013.5F         1/ 3
MASS BAY-STELLWA 0904   60 56                N/A    1 5/8  2/ 5
ISLE OF SHOALS   1000   67     250/ 15/ 15 1011.2R
S OF BLOCK IS    0925      58                N/A           4/ 7
$$

......................KEY.........................
  SKY/WX - SKY CONDITION/PRESENT WEATHER
  TMP    - TEMPERATURE IN FAHRENHEIT
  DWPT   - DEWPOINT IN FAHRENHEIT
  RH     - RELATIVE HUMIDITY IN PERCENT
  WIND   - DIRECTION AND SPEED IN MPH
  PRES   - MEAN SEA LEVEL PRESSURE IN INCHES OF HG
  WCI    - WIND CHILL INDEX
  VSB    - VISIBILITY IN MILES
  HX     - HEAT INDEX
  TC     - TEMPERATURE IN CELSIUS
  VRB    - VARIABLE WIND DIRECTION
  N/A    - NOT AVAILABLE




USA.gov is the U.S. government's official web portal to all federal, state and local government web resources and services.